Hourly Weather Bolshie Staryshi

Today, 4 August, Wednesday

Time Temperature Precipitation Wind Pressure Humidity
00:00 +14°C° 0 mm 2 mps 744 mmHg 85%
01:00 +13°C° 0 mm 2 mps 744 mmHg 88%
02:00 +13°C° 0 mm 2 mps 744 mmHg 89%
03:00 +13°C° 0 mm 2 mps 744 mmHg 89%
04:00 +13°C° 0 mm 2 mps 744 mmHg 90%
05:00 +13°C° 0 mm 1 mps 744 mmHg 90%
06:00 +15°C° 0 mm 2 mps 745 mmHg 82%
07:00 +17°C° 0 mm 2 mps 745 mmHg 74%
08:00 +19°C° 0 mm 2 mps 745 mmHg 67%
09:00 +20°C° 0 mm 2 mps 745 mmHg 61%
10:00 +21°C° 0 mm 2 mps 746 mmHg 55%
11:00 +22°C° 0 mm 3 mps 746 mmHg 49%
12:00 +23°C° 0 mm 2 mps 746 mmHg 49%
13:00 +23°C° 0 mm 2 mps 745 mmHg 48%
14:00 +24°C° 0 mm 2 mps 745 mmHg 48%
15:00 +23°C° 0 mm 2 mps 745 mmHg 53%
16:00 +22°C° 0 mm 1 mps 745 mmHg 58%
17:00 +21°C° 0 mm 1 mps 745 mmHg 63%
18:00 +18°C° 0 mm 2 mps 745 mmHg 66%
19:00 +17°C° 0 mm 2 mps 745 mmHg 70%
20:00 +16°C° 0 mm 2 mps 745 mmHg 73%
21:00 +16°C° 0 mm 2 mps 745 mmHg 75%
22:00 +15°C° 0 mm 2 mps 745 mmHg 77%
23:00 +14°C° 0 mm 3 mps 745 mmHg 79%

Tomorrow, 5 August, Thursday

Time Temperature Precipitation Wind Pressure Humidity
00:00 +14°C° 0.1 mm 3 mps 745 mmHg 79%
01:00 +14°C° 0.1 mm 3 mps 744 mmHg 80%
02:00 +14°C° 0.1 mm 3 mps 744 mmHg 80%
03:00 +14°C° 0.9 mm 3 mps 744 mmHg 85%
04:00 +14°C° 0.9 mm 3 mps 744 mmHg 89%
05:00 +14°C° 0.9 mm 3 mps 743 mmHg 94%
06:00 +14°C° 0.4 mm 3 mps 743 mmHg 92%
07:00 +16°C° 0.4 mm 3 mps 743 mmHg 89%
08:00 +17°C° 0.4 mm 3 mps 743 mmHg 87%
09:00 +18°C° 0.1 mm 3 mps 743 mmHg 81%
10:00 +20°C° 0.1 mm 4 mps 743 mmHg 74%
11:00 +21°C° 0.1 mm 4 mps 743 mmHg 68%
12:00 +21°C° 0.1 mm 4 mps 742 mmHg 67%
13:00 +22°C° 0.1 mm 4 mps 742 mmHg 66%
14:00 +22°C° 0.1 mm 4 mps 742 mmHg 65%
15:00 +22°C° 0.1 mm 3 mps 742 mmHg 67%
16:00 +22°C° 0.1 mm 3 mps 742 mmHg 68%
17:00 +23°C° 0.1 mm 2 mps 741 mmHg 70%
18:00 +20°C° 0.5 mm 2 mps 741 mmHg 77%
19:00 +19°C° 0.5 mm 2 mps 741 mmHg 85%
20:00 +18°C° 0.5 mm 1 mps 741 mmHg 92%
21:00 +18°C° 0.1 mm 1 mps 741 mmHg 93%
22:00 +17°C° 0.1 mm 2 mps 741 mmHg 94%
23:00 +17°C° 0.1 mm 2 mps 741 mmHg 95%

Day after tomorrow, 6 August, Friday

Time Temperature Precipitation Wind Pressure Humidity
00:00 +16°C° 0.1 mm 2 mps 741 mmHg 96%
01:00 +16°C° 0.1 mm 2 mps 740 mmHg 96%
02:00 +16°C° 0.1 mm 2 mps 740 mmHg 97%
03:00 +16°C° 0.2 mm 2 mps 740 mmHg 97%
04:00 +16°C° 0.2 mm 2 mps 739 mmHg 98%
05:00 +16°C° 0.2 mm 3 mps 739 mmHg 98%
06:00 +16°C° 1.2 mm 3 mps 739 mmHg 98%
07:00 +17°C° 1.2 mm 3 mps 738 mmHg 98%
08:00 +17°C° 1.2 mm 4 mps 738 mmHg 98%
09:00 +18°C° 0.7 mm 4 mps 738 mmHg 95%
10:00 +19°C° 0.7 mm 4 mps 738 mmHg 92%
11:00 +20°C° 0.7 mm 4 mps 738 mmHg 89%
12:00 +22°C° 0 mm 4 mps 738 mmHg 82%
13:00 +25°C° 0 mm 4 mps 737 mmHg 75%
14:00 +26°C° 0 mm 4 mps 737 mmHg 69%
15:00 +25°C° 1.9 mm 4 mps 737 mmHg 77%
16:00 +22°C° 1.9 mm 4 mps 737 mmHg 85%
17:00 +21°C° 1.9 mm 5 mps 736 mmHg 93%
18:00 +20°C° 0.5 mm 4 mps 736 mmHg 94%
19:00 +19°C° 0.5 mm 4 mps 737 mmHg 94%
20:00 +19°C° 0.5 mm 4 mps 737 mmHg 95%
21:00 +19°C° 0.4 mm 3 mps 737 mmHg 96%
22:00 +19°C° 0.4 mm 3 mps 737 mmHg 96%
23:00 +18°C° 0.4 mm 3 mps 737 mmHg 97%

7 August, Saturday

Time Temperature Precipitation Wind Pressure Humidity
00:00 +18°C° 0.2 mm 3 mps 737 mmHg 97%
01:00 +19°C° 0.2 mm 3 mps 737 mmHg 98%
02:00 +19°C° 0.2 mm 2 mps 737 mmHg 98%
03:00 +18°C° 0.3 mm 2 mps 737 mmHg 98%
04:00 +18°C° 0.3 mm 2 mps 738 mmHg 98%
05:00 +18°C° 0.3 mm 3 mps 738 mmHg 97%
06:00 +18°C° 0.2 mm 3 mps 738 mmHg 95%
07:00 +18°C° 0.2 mm 3 mps 738 mmHg 92%
08:00 +19°C° 0.2 mm 3 mps 739 mmHg 89%
09:00 +19°C° 0.2 mm 2 mps 739 mmHg 88%
10:00 +19°C° 0.2 mm 2 mps 739 mmHg 87%
11:00 +19°C° 0.2 mm 2 mps 739 mmHg 86%
12:00 +20°C° 0 mm 2 mps 739 mmHg 80%
13:00 +21°C° 0 mm 3 mps 739 mmHg 74%
14:00 +22°C° 0 mm 3 mps 739 mmHg 69%
15:00 +22°C° 0 mm 3 mps 740 mmHg 68%
16:00 +22°C° 0 mm 3 mps 740 mmHg 68%
17:00 +22°C° 0 mm 4 mps 740 mmHg 68%
18:00 +20°C° 0 mm 4 mps 740 mmHg 73%
19:00 +18°C° 0 mm 3 mps 741 mmHg 78%
20:00 +16°C° 0 mm 3 mps 741 mmHg 83%
21:00 +14°C° 0 mm 3 mps 741 mmHg 86%
22:00 +13°C° 0 mm 3 mps 741 mmHg 90%
23:00 +14°C° 0 mm 2 mps 742 mmHg 94%

8 August, Sunday

Time Temperature Precipitation Wind Pressure Humidity
00:00 +13°C° 0 mm 2 mps 742 mmHg 94%
01:00 +13°C° 0 mm 2 mps 742 mmHg 95%
02:00 +13°C° 0 mm 2 mps 742 mmHg 95%
03:00 +13°C° 0 mm 2 mps 742 mmHg 94%
04:00 +14°C° 0 mm 2 mps 742 mmHg 93%
05:00 +14°C° 0 mm 2 mps 742 mmHg 93%
06:00 +15°C° 0 mm 2 mps 743 mmHg 89%
07:00 +16°C° 0 mm 3 mps 743 mmHg 84%
08:00 +17°C° 0 mm 3 mps 743 mmHg 80%
09:00 +19°C° 0 mm 3 mps 743 mmHg 74%
10:00 +20°C° 0 mm 4 mps 744 mmHg 68%
11:00 +21°C° 0 mm 4 mps 744 mmHg 62%
12:00 +22°C° 0 mm 3 mps 744 mmHg 59%
13:00 +24°C° 0 mm 3 mps 744 mmHg 55%
14:00 +25°C° 0 mm 3 mps 744 mmHg 52%
15:00 +25°C° 0 mm 3 mps 744 mmHg 53%
16:00 +25°C° 0 mm 2 mps 744 mmHg 53%
17:00 +25°C° 0 mm 2 mps 744 mmHg 54%
18:00 +23°C° 0 mm 2 mps 744 mmHg 60%
19:00 +21°C° 0 mm 1 mps 745 mmHg 65%
20:00 +19°C° 0 mm 1 mps 745 mmHg 71%
21:00 +19°C° 0 mm 1 mps 745 mmHg 72%
22:00 +18°C° 0 mm 1 mps 745 mmHg 72%
23:00 +18°C° 0 mm 1 mps 745 mmHg 73%

9 August, Monday

Time Temperature Precipitation Wind Pressure Humidity
00:00 +18°C° 0 mm 1 mps 745 mmHg 74%
01:00 +16°C° 0 mm 1 mps 746 mmHg 74%
02:00 +16°C° 0 mm 2 mps 746 mmHg 75%
03:00 +16°C° 0 mm 2 mps 745 mmHg 74%
04:00 +16°C° 0 mm 1 mps 745 mmHg 73%
05:00 +16°C° 0 mm 1 mps 745 mmHg 72%
06:00 +18°C° 0 mm 2 mps 745 mmHg 68%
07:00 +20°C° 0 mm 2 mps 745 mmHg 65%
08:00 +21°C° 0 mm 2 mps 746 mmHg 61%
09:00 +24°C° 0 mm 2 mps 746 mmHg 58%
10:00 +25°C° 0 mm 3 mps 746 mmHg 54%
11:00 +27°C° 0 mm 3 mps 746 mmHg 51%
12:00 +27°C° 0.1 mm 3 mps 746 mmHg 52%
13:00 +27°C° 0.1 mm 4 mps 746 mmHg 54%
14:00 +27°C° 0.1 mm 4 mps 746 mmHg 56%
15:00 +26°C° 0.4 mm 4 mps 746 mmHg 63%
16:00 +25°C° 0.4 mm 4 mps 746 mmHg 70%
17:00 +24°C° 0.4 mm 3 mps 746 mmHg 77%
18:00 +22°C° 0.7 mm 3 mps 746 mmHg 83%
19:00 +20°C° 0.7 mm 3 mps 746 mmHg 89%
20:00 +19°C° 0.7 mm 3 mps 747 mmHg 94%
21:00 +18°C° 0 mm 3 mps 747 mmHg 94%
22:00 +18°C° 0 mm 2 mps 747 mmHg 94%
23:00 +17°C° 0 mm 2 mps 747 mmHg 94%
Show more

We Need Your Consent

Meteoprog and our Service Providers may store and access personal data such as cookies, device identifiers or other similar technologies on your device and process such data to personalise content and ads, as well as provide social media features and to analyse the traffic.

  • Store and/or access information on your device

    Cookies, device identifiers or other information can be stored or accessed on your device for the purposes indicated above.

  • Personalised ads and content, ad and content measurement, audience insights, and products development

    Ads and content can be personalised based on a profile. More data can be added to better personalise ads and content. Ad and content performance can be measured. Insights about the audience who saw the ads and content can be derived. Such data can be used to develop or improve user’s experience, systems and software.

By clicking ‘I Agree’ you will allow the use of indicated cookies, device identifiers, web beacons or other similar technologies. Your settings can be changed in the browser on your device.

For certain purposes, legitimate interests may be relied on, rather than consent. You can read more about this in our Privacy and Cookie Policy.